Wind_Speed
19 24 26 21 20 19 19 19 19 17 17 16 17 18 18 18 20 19 19 21 25 26 25 23 24 26 25 26 26 26 26 27 27 27 28 27 26 24 24 24 25 25 24
24 26 29 24 21 20 20 20 19 18 18 18 19 19 17 18 19 19 19 22 24 25 23 22 24 24 24 25 25 26 27 28 28 26 25 24 25 23 23 23 24 23 23
28 28 29 26 24 23 19 20 18 20 20 20 20 20 18 18 20 21 23 24 26 24 23 23 23 23 23 24 25 25 24 26 25 25 22 23 23 22 22 22 22 22 22
28 28 27 28 26 23 20 21 21 21 21 20 21 21 19 19 20 20 22 23 24 24 23 23 23 22 23 22 22 23 24 22 20 19 21 21 20 21 21 21 20 21 21
26 28 27 28 27 23 24 25 25 22 21 21 21 20 20 19 20 20 21 22 24 22 23 22 22 22 22 21 22 21 21 20 19 20 20 20 18 18 18 19 19 19 18
28 27 28 28 27 27 27 25 24 22 22 22 19 21 21 20 19 21 19 18 21 19 22 22 22 23 21 20 20 21 21 21 19 19 19 18 19 18 19 18 18 18 18
30 26 27 28 27 29 26 26 23 24 23 23 20 21 23 22 19 19 19 19 18 18 18 21 21 22 22 20 22 20 16 18 18 18 18 17 18 17 17 17 16 17 17
30 30 28 29 28 29 25 26 24 24 24 22 22 23 22 20 19 20 18 16 18 19 18 18 19 19 21 21 23 22 21 18 18 17 17 16 16 16 16 15 15 15 15
29 29 30 27 28 28 25 24 25 24 25 22 22 22 21 19 20 19 17 18 18 17 17 17 17 18 19 21 21 18 14 16 16 17 16 16 15 15 14 14 14 14 14
30 29 30 29 27 25 24 23 25 25 25 25 21 19 18 19 18 17 19 19 19 17 15 16 17 17 19 19 19 20 20 16 15 16 15 15 14 14 14 14 13 13 13
29 30 30 30 28 26 24 23 24 25 26 24 21 20 20 17 17 16 17 20 17 17 16 15 16 18 19 17 18 14 11 12 12 14 14 13 13 13 13 12 13 12 12
29 30 31 30 30 27 26 24 24 26 24 21 21 21 19 18 17 15 17 17 17 16 14 13 15 17 14 12 13 7 9 10 11 13 12 12 11 11 11 11 11 11 11
33 31 32 31 29 30 26 27 27 26 25 22 20 20 18 21 20 17 18 18 18 16 14 12 15 10 9 9 8 6 9 9 10 11 11 10 9 9 8 9 9 9 9
32 31 31 31 29 29 27 27 26 24 23 22 23 19 18 18 18 17 17 18 16 14 14 12 10 8 9 8 7 7 7 6 8 10 10 8 8 7 7 7 6 6 6
30 29 33 30 30 28 27 26 26 24 23 21 22 18 18 19 20 21 16 17 14 15 13 10 9 10 9 8 7 6 6 6 6 7 7 8 7 6 5 5 4 4 3
33 32 35 30 31 30 27 27 26 25 23 22 20 19 17 17 21 19 18 16 14 14 12 10 10 9 8 8 8 6 6 5 5 5 5 8 8 6 4 4 3 2 2
33 34 36 33 32 35 29 27 24 25 25 22 21 21 18 17 19 17 17 14 14 14 12 11 10 9 7 6 6 5 5 5 4 5 5 4 5 6 7 5 4 4 4
34 35 35 32 35 35 30 26 25 24 23 22 20 20 20 19 19 20 18 15 13 13 12 11 11 9 8 7 7 6 5 5 5 5 5 5 5 5 6 9 9 9 8
33 34 33 31 33 32 28 25 25 24 22 21 20 20 20 19 19 19 18 16 15 14 13 13 12 10 8 8 7 6 5 5 5 6 6 7 7 10 7 10 12 14 14
31 32 32 32 32 29 27 25 22 21 20 20 20 20 20 19 19 18 18 17 17 15 14 12 12 10 9 8 7 7 6 6 7 7 8 9 9 10 10 10 12 12 13
31 32 31 32 33 30 27 24 21 21 18 20 20 19 20 19 19 19 18 18 18 16 15 14 12 11 8 7 6 6 7 9 9 10 9 10 10 11 11 12 13 13 13
30 33 30 32 33 32 28 25 23 20 18 19 19 19 20 19 20 19 19 19 19 17 15 14 13 12 10 10 6 3 2 7 8 10 10 10 11 12 13 14 15 15 16
30 33 31 33 34 33 30 24 21 19 21 19 19 19 19 18 19 18 18 19 18 16 16 15 14 13 10 10 9 4 2 3 1 6 6 6 6 7 10 12 13 14 14
29 31 32 30 33 31 28 25 26 24 23 20 24 19 19 19 20 20 20 18 18 17 15 16 15 14 11 10 8 9 7 3 2 1 7 8 7 8 10 12 13 13 13
30 31 31 32 33 30 28 28 27 23 22 20 21 21 21 21 21 22 20 19 18 16 15 15 16 16 13 11 11 7 9 8 7 5 3 4 6 10 11 11 12 13 12
30 31 32 31 32 32 31 30 29 26 24 23 24 23 22 22 22 22 21 20 19 18 17 17 17 17 16 15 11 11 10 6 9 9 6 9 9 11 10 13 14 14 13
Wind_Direction
160 162 168 171 166 164 161 160 154 146 140 138 129 123 121 116 114 114 110 105 102 99 98 100 97 95 95 93 93 94 92 91 94 92 90 86 88 86 85 85 85 83 83
161 161 163 168 166 164 161 156 153 147 149 141 133 127 122 121 119 116 117 110 104 99 100 97 94 95 95 94 94 94 94 97 94 94 92 90 87 87 85 86 86 86 85
157 160 160 165 166 167 168 164 159 154 152 143 138 132 126 123 122 117 111 109 103 101 101 98 98 98 99 98 98 97 96 97 92 88 89 87 88 87 87 85 88 86 86
156 160 161 166 165 168 175 164 161 157 152 146 141 135 129 127 122 117 116 112 110 109 105 103 104 104 103 101 99 100 99 97 90 90 85 89 85 84 85 86 84 84 84
159 159 165 165 165 164 163 163 159 161 155 148 142 137 135 132 128 123 118 120 119 121 115 112 109 106 105 103 104 102 103 94 89 86 89 87 89 88 90 88 84 85 85
160 161 168 168 166 161 159 164 165 162 158 150 145 142 138 133 130 126 125 122 123 125 116 115 115 114 111 107 108 108 104 94 88 88 90 87 87 88 85 85 85 86 85
161 162 165 168 169 166 163 167 168 161 160 150 147 147 142 136 132 131 131 130 130 130 122 116 117 123 117 114 117 110 95 98 91 88 87 90 86 86 84 84 83 85 85
161 163 164 170 169 172 166 166 168 163 161 153 146 148 150 146 138 137 139 142 135 128 126 120 123 120 119 123 124 113 112 109 100 97 94 90 88 86 87 87 86 84 82
161 160 163 167 168 175 170 168 167 167 160 153 148 151 149 149 145 146 148 143 138 131 125 123 122 123 122 128 127 120 106 105 103 103 98 95 94 94 90 88 86 85 84
159 162 165 166 166 167 174 174 169 165 160 151 150 152 147 145 147 151 147 144 138 136 133 132 128 129 130 133 129 113 103 97 99 97 96 101 97 95 95 94 90 86 83
162 169 169 165 168 169 168 175 171 162 156 152 155 154 144 141 141 146 147 143 139 135 133 133 136 136 135 134 130 111 99 106 102 103 105 103 100 99 98 97 96 95 90
172 172 168 168 169 168 166 169 166 161 155 152 156 155 151 149 146 148 154 148 144 139 137 140 138 133 126 134 139 99 113 112 104 106 109 107 105 104 106 104 103 100 97
171 168 169 170 169 165 165 165 166 164 161 159 157 160 156 153 155 146 147 143 141 136 134 134 139 147 148 147 157 125 123 117 114 116 118 116 110 109 107 107 107 104 104
172 168 172 166 166 165 162 162 166 162 162 160 162 164 160 152 158 157 159 159 154 156 151 152 166 158 155 156 152 142 138 125 124 121 127 124 120 118 116 111 110 109 103
167 161 165 163 161 163 164 161 164 164 163 163 165 166 164 162 157 165 166 162 159 158 162 160 160 156 156 153 155 155 147 134 129 128 140 146 145 141 135 130 131 124 124
169 167 167 165 165 164 163 165 166 165 164 165 165 166 168 166 168 168 173 170 169 166 167 162 158 158 150 153 155 161 159 153 145 148 159 173 178 173 168 172 174 173 190
173 168 170 167 167 169 169 168 166 166 165 165 166 167 170 171 169 169 168 171 170 179 168 164 159 155 154 152 156 160 172 172 179 179 181 187 203 211 212 207 223 239 259
173 167 169 168 168 168 170 171 167 167 165 165 168 171 172 172 172 175 170 173 174 174 173 169 167 166 164 168 166 171 174 186 199 209 211 216 217 236 269 254 254 259 261
172 171 164 168 168 170 168 168 169 167 171 170 170 172 173 173 174 169 175 173 173 176 176 174 172 175 174 179 179 185 190 206 208 222 226 235 235 236 235 269 277 270 270
167 166 166 169 164 165 163 168 168 170 175 173 172 173 175 175 176 174 176 172 175 176 176 178 173 181 185 189 191 202 212 220 227 233 239 241 243 245 252 250 263 281 285
166 164 169 166 164 165 165 163 170 174 178 173 177 175 177 176 177 177 177 176 180 181 181 183 181 180 184 188 192 222 235 235 236 240 242 243 249 253 255 257 258 262 266
161 167 173 168 167 169 172 172 175 171 176 177 177 175 178 178 179 180 178 179 185 183 188 189 190 185 184 188 203 234 240 196 229 238 239 243 249 253 255 256 258 259 262
165 167 171 171 172 173 174 173 165 164 168 174 178 173 180 182 180 182 179 180 186 188 191 193 193 192 181 193 209 252 184 235 135 191 212 232 235 249 257 262 266 265 261
171 170 176 175 175 177 171 168 166 170 170 175 175 177 182 185 184 185 182 184 184 189 191 193 196 201 198 189 199 229 245 318 311 209 204 211 232 255 255 259 266 269 266
170 175 175 180 175 180 176 177 173 171 179 171 179 183 184 186 187 190 187 191 190 192 198 197 199 202 204 211 193 183 220 227 240 246 286 225 224 275 269 258 260 262 266
172 175 180 181 179 184 187 182 179 179 179 178 184 184 186 185 186 193 193 197 199 204 204 203 204 203 203 213 216 214 201 189 212 215 236 260 259 266 256 258 262 270 270
Height
762 766 772 779 781 784 787 790 793 796 798 800 801 803 805 805 805 807 809 810 810 811 814 816 816 817 820 820 821 822 823 824 825 826 827 828 829 830 830 831 830 832 833
761 765 770 777 782 785 788 791 794 797 799 802 803 805 807 808 808 809 811 813 814 815 818 819 820 822 824 824 826 827 828 828 829 830 832 833 833 835 834 834 835 836 836
760 767 770 776 781 785 789 792 795 798 801 804 805 807 809 811 811 812 813 815 816 818 821 822 824 826 828 829 830 831 832 832 834 835 836 836 838 839 838 839 840 840 840
760 767 771 775 780 785 790 792 796 799 802 805 807 809 811 813 814 816 817 818 818 821 823 826 828 830 831 833 834 835 835 837 837 838 839 841 842 842 843 844 844 843 844
763 767 772 775 779 784 789 794 795 799 803 805 809 811 813 815 817 819 820 821 821 823 825 828 830 832 834 836 837 838 839 840 841 842 843 845 846 847 847 848 847 848 848
762 768 771 776 780 784 789 794 797 800 804 807 810 813 814 817 819 820 823 825 826 827 828 830 831 833 836 839 840 840 841 843 845 846 847 849 849 851 851 851 852 852 852
760 766 772 776 783 785 788 793 798 800 805 807 811 815 816 819 821 824 826 827 830 831 832 833 834 834 836 839 841 842 843 845 848 850 852 853 853 854 855 855 856 856 857
758 764 772 777 783 787 789 792 799 802 805 809 811 815 818 821 824 826 828 830 832 834 835 837 837 839 839 841 843 844 845 847 849 851 853 855 856 857 858 860 860 860 861
758 765 770 777 780 788 791 795 799 803 806 810 813 816 818 823 826 829 830 832 835 837 839 840 842 842 843 845 846 847 848 849 851 853 855 856 858 859 861 862 863 863 864
758 765 769 775 780 786 793 797 799 803 808 811 814 818 821 824 827 830 832 835 837 838 841 842 844 846 847 849 850 851 852 853 855 856 858 859 860 861 861 863 864 866 866
760 764 770 772 779 785 790 797 801 805 809 812 815 819 822 826 829 833 834 836 839 842 844 846 847 848 850 852 853 853 853 856 857 858 860 862 863 863 864 865 866 866 868
756 761 767 771 777 783 788 795 802 805 810 813 816 820 822 826 830 833 835 838 840 844 847 849 851 851 854 855 856 856 857 858 859 861 863 864 865 866 867 867 868 868 868
751 758 764 770 774 781 787 793 799 804 809 813 817 821 823 825 830 834 836 839 842 845 848 851 853 854 856 857 858 859 860 860 861 863 864 866 867 868 869 869 869 869 869
749 755 761 768 774 780 786 791 798 802 808 812 816 820 823 825 830 834 838 840 843 847 848 851 854 855 856 859 860 861 863 864 864 865 867 868 869 869 870 870 870 870 870
747 752 759 765 771 778 785 790 797 802 806 810 814 819 821 826 828 833 837 840 844 846 849 851 853 855 857 858 861 863 864 865 866 867 868 869 870 870 870 870 870 870 871
743 751 756 763 769 774 782 789 794 800 804 810 813 817 821 825 829 832 837 840 844 847 849 852 854 856 858 859 860 863 864 866 867 868 870 870 871 871 871 870 870 870 870
737 747 753 759 765 772 780 787 793 798 801 807 812 814 820 824 828 831 835 840 844 846 849 852 853 856 859 860 862 863 865 866 869 869 870 870 870 871 870 870 871 871 871
737 742 751 756 761 771 778 785 791 796 801 805 810 814 817 822 827 831 834 839 844 846 848 850 854 856 858 860 861 863 864 865 867 869 870 870 870 870 869 869 870 869 869
731 739 747 754 760 769 778 783 788 795 800 803 807 812 816 821 825 828 833 836 842 847 848 849 852 855 857 859 860 862 863 865 865 866 867 869 869 868 868 867 867 867 867
729 737 745 752 758 768 774 781 788 793 798 801 805 810 815 819 824 826 831 834 840 845 847 850 850 853 855 858 859 861 861 862 864 864 865 865 866 866 866 865 864 863 864
727 735 744 749 755 764 772 778 787 790 796 800 804 807 813 817 821 825 827 833 837 841 845 848 850 851 854 857 859 860 860 860 861 862 862 862 863 863 862 862 861 860 860
722 732 741 747 754 762 769 776 784 789 795 800 804 807 812 816 819 823 825 829 835 837 843 845 849 849 850 854 856 857 856 857 857 858 858 858 858 860 859 858 858 858 857
721 728 738 745 752 759 766 775 781 788 794 798 802 805 811 815 818 822 824 828 833 836 839 842 847 848 849 853 854 855 855 853 854 855 856 856 856 856 856 855 854 854 853
719 727 736 743 750 758 764 771 776 782 786 792 798 803 808 812 815 821 822 827 829 834 837 839 843 847 847 850 852 854 855 854 853 852 854 853 854 854 853 853 852 851 851
716 724 733 740 747 754 761 768 773 779 785 790 796 801 805 810 812 819 819 825 827 830 834 837 840 843 844 848 848 850 853 853 854 855 853 851 851 851 850 849 849 849 848
712 721 730 736 744 751 758 764 768 775 781 786 792 796 802 806 808 815 817 822 825 828 831 835 837 839 841 845 845 847 849 850 850 853 853 850 849 848 848 847 846 845 846